Wind_Speed
37 36 33 33 33 32 31 29 28 28 28 25 25 24 23 23 22 22 22 22 21 20 20 20 20 20 20 21 21 22 22 23 24 26 27 28 28 29 30 30 31 31 32 32
39 36 34 34 33 32 30 29 29 29 28 26 25 24 24 23 22 22 22 21 21 20 20 20 20 20 21 21 22 23 23 24 26 26 27 28 29 29 30 30 31 31 31 31
38 35 35 35 33 32 30 29 29 29 28 27 27 25 24 23 22 22 22 21 21 20 20 20 20 21 22 22 23 23 24 26 27 27 28 29 29 30 30 30 31 31 31 31
39 37 36 35 34 33 31 29 29 29 28 26 26 25 23 22 22 22 22 21 21 21 21 21 21 22 23 23 24 25 26 27 28 29 30 30 30 31 31 31 31 32 32 33
37 36 36 34 33 32 31 29 28 28 28 27 24 27 23 22 21 22 22 22 21 21 22 22 22 23 23 24 25 26 28 29 30 30 31 32 32 32 32 33 33 34 34 35
35 36 36 34 32 32 31 29 29 28 29 27 23 27 25 21 20 22 22 22 22 22 23 23 23 24 24 25 27 28 29 31 31 32 33 33 34 34 34 34 35 36 36 37
34 36 35 34 33 32 30 28 29 28 28 27 24 26 26 22 21 22 22 23 23 23 23 24 24 25 26 27 28 30 31 32 33 34 34 35 36 36 37 37 38 38 39 40
35 35 35 33 32 30 29 29 28 27 27 27 25 24 23 21 23 23 23 23 23 24 25 25 26 26 27 29 30 32 33 34 35 36 36 37 38 38 39 40 41 41 42 43
35 36 34 32 30 30 29 28 26 28 28 28 27 24 22 21 23 25 24 24 24 25 26 27 27 28 29 31 32 34 35 36 37 38 39 39 40 40 41 41 42 43 44 46
34 35 34 32 31 30 29 27 27 29 28 28 26 25 24 20 23 25 26 26 26 27 27 29 30 31 32 33 35 37 38 38 39 40 41 41 41 42 42 42 44 45 46 48
32 34 33 31 30 29 29 28 28 29 29 28 26 25 25 23 23 25 27 27 28 29 29 30 32 33 35 37 38 39 40 40 41 42 42 42 42 42 43 44 46 47 49 51
30 32 31 30 29 30 29 28 27 28 28 28 28 27 26 25 26 27 29 29 30 31 32 33 34 36 38 39 40 41 42 42 43 43 43 43 44 44 46 47 48 49 51 53
29 31 31 31 30 30 29 26 26 27 29 29 28 27 26 27 28 29 30 31 32 33 34 36 37 39 40 41 42 43 43 44 44 44 45 45 46 47 48 49 51 52 54 55
29 30 30 30 30 29 28 27 27 29 29 29 27 27 27 29 30 31 32 33 34 35 36 38 39 41 42 43 43 44 45 45 46 46 46 47 48 49 50 52 53 55 56 58
30 30 30 31 32 30 29 28 28 29 29 29 28 28 28 32 34 33 34 35 36 37 38 40 41 42 43 44 45 45 46 46 47 47 48 49 50 51 52 54 55 57 59 61
32 32 32 32 32 32 31 30 29 29 29 30 30 30 29 34 36 36 37 38 39 39 41 42 43 44 45 45 46 46 47 47 47 48 49 50 51 53 54 56 57 59 61 64
33 33 33 33 33 34 34 30 30 30 30 32 33 31 33 35 36 37 39 40 41 42 43 44 44 45 46 46 46 46 47 47 48 49 50 51 53 55 56 58 60 62 64 66
35 34 35 35 35 38 32 30 30 31 31 32 33 33 35 35 36 38 40 41 43 43 44 44 45 45 45 46 46 47 47 48 49 50 51 53 55 57 58 60 63 65 67 69
35 36 36 37 37 36 33 32 31 32 32 31 33 35 37 37 39 39 41 42 43 44 44 44 44 45 45 46 46 47 48 49 50 52 54 55 57 59 61 63 65 67 69 71
35 36 38 38 39 38 34 33 33 34 34 32 34 36 38 38 39 40 41 43 43 43 43 44 44 45 46 46 47 48 49 50 52 53 55 57 59 61 63 66 68 70 72 73
35 37 38 38 39 38 36 34 34 35 34 34 35 36 37 39 40 41 42 42 43 43 43 44 44 45 46 47 48 49 50 52 54 55 57 59 61 64 66 68 70 72 74 75
35 36 37 38 39 37 34 35 36 37 37 37 37 37 38 39 40 41 42 42 43 43 44 44 45 45 46 48 49 50 52 54 56 57 59 61 64 66 68 70 72 74 76 77
34 34 35 36 36 36 36 36 36 37 38 38 38 39 39 40 41 41 41 42 43 44 44 45 45 46 47 49 50 52 54 56 57 59 61 63 66 68 70 72 74 76 78 80
34 34 34 35 35 35 35 36 38 39 39 39 40 41 41 41 41 41 42 43 44 44 45 46 46 47 49 50 52 54 56 58 59 61 63 66 68 70 72 74 76 78 80 81
34 33 33 34 35 35 35 37 38 39 40 40 41 41 41 42 42 42 43 44 44 45 46 47 48 49 50 52 54 56 58 59 61 64 66 68 71 73 75 76 78 80 81 82
33 33 33 34 35 36 37 37 39 40 41 41 42 42 42 42 42 43 44 45 45 46 47 47 49 50 52 54 55 57 60 62 64 66 69 71 73 75 78 79 79 80 80 79
Wind_Direction
238 238 238 240 243 244 246 250 253 256 260 260 262 265 268 271 271 272 273 274 275 276 276 276 276 277 278 279 280 282 283 284 285 286 287 288 289 290 290 290 290 290 289 289
239 238 239 240 242 244 246 249 252 254 258 261 262 264 266 269 271 272 273 274 275 275 276 276 277 278 280 281 283 284 285 286 288 288 289 290 291 291 291 292 292 292 291 290
242 239 238 240 241 243 245 248 251 255 258 261 263 262 265 268 270 271 272 273 274 274 275 276 278 281 282 284 285 287 288 289 290 290 291 292 292 292 292 292 292 291 290 290
242 240 239 240 241 243 244 247 251 254 257 259 262 264 264 267 270 271 272 272 273 273 275 277 280 282 284 286 287 289 290 290 291 292 292 293 294 294 293 292 291 291 290 290
244 240 239 239 240 243 245 247 250 254 257 259 263 267 265 265 269 270 271 272 273 274 276 279 281 283 285 287 288 290 291 291 292 292 293 294 294 294 293 292 292 292 291 291
243 240 239 239 239 241 244 246 250 254 258 260 263 268 268 267 269 270 272 273 274 276 278 280 282 284 285 287 289 290 291 292 292 292 293 294 293 293 292 292 292 292 292 292
243 241 239 238 239 241 244 246 249 253 257 262 260 264 269 273 271 270 271 274 276 277 279 281 282 284 286 287 289 291 291 291 291 291 292 293 292 292 292 292 292 292 292 292
242 241 239 238 240 240 241 244 248 253 257 261 260 262 269 273 272 272 272 274 277 278 280 281 283 285 286 288 290 291 292 291 291 291 292 292 292 292 292 292 292 292 292 293
243 243 240 238 236 238 240 243 247 252 255 261 266 268 266 269 272 274 275 276 277 279 281 282 283 285 287 289 291 292 292 292 291 291 291 292 291 291 292 292 292 292 292 293
238 239 237 236 236 238 242 243 244 249 254 258 262 267 267 264 270 274 277 278 279 280 282 284 285 287 288 290 291 292 293 293 292 292 292 292 292 292 292 292 292 292 293 294
236 237 238 237 237 238 241 243 246 250 253 257 262 264 268 271 272 274 276 278 280 282 284 286 287 288 289 291 292 293 293 293 293 292 292 292 292 292 293 293 293 294 294 295
235 237 239 238 237 238 240 243 245 249 253 256 260 263 269 273 274 275 277 279 281 283 285 287 288 289 290 291 292 293 293 293 293 292 292 292 292 293 293 294 295 295 296 296
233 235 239 241 239 239 240 242 246 250 253 257 262 269 272 274 274 275 277 280 282 284 286 287 288 289 290 291 292 292 293 293 293 292 292 292 293 294 294 295 296 296 297 298
235 237 239 243 243 240 241 243 247 250 254 259 264 270 273 275 275 276 279 281 282 284 286 287 288 289 290 291 292 292 293 293 293 292 293 293 294 295 295 296 297 298 299 300
238 237 237 238 242 244 243 244 247 252 258 262 266 268 274 277 278 280 281 283 284 286 287 288 289 289 290 291 291 292 292 292 292 292 293 294 295 296 297 297 298 299 300 301
238 237 237 238 242 246 247 248 251 256 260 265 267 270 273 275 280 283 283 284 286 287 287 288 289 289 290 291 291 291 291 292 292 293 294 295 296 297 298 299 300 301 302 303
239 241 242 244 246 250 252 255 258 260 263 267 270 273 274 276 280 282 284 285 287 288 288 289 289 289 290 290 290 291 291 292 292 293 294 295 297 298 299 300 301 302 303 304
242 244 247 248 250 254 259 258 259 262 265 268 272 275 277 279 280 281 283 285 286 287 288 288 289 289 289 289 290 291 291 292 293 294 295 296 298 299 300 301 302 303 304 305
245 245 248 251 254 259 259 261 264 267 267 270 274 276 277 279 281 283 285 285 286 287 287 288 288 288 289 290 291 291 292 293 294 295 296 297 298 299 301 302 303 304 305 306
247 249 251 254 258 262 265 265 265 268 269 271 273 275 277 279 281 284 284 285 286 287 287 288 289 289 290 290 291 292 293 293 294 296 297 298 299 301 302 303 304 305 306 307
248 251 254 257 261 263 266 269 271 272 275 275 275 276 278 279 282 284 285 286 286 287 288 289 289 290 290 291 292 292 293 294 295 296 298 299 300 302 303 304 306 307 308 308
250 252 255 258 262 267 270 272 273 276 276 278 279 280 281 282 284 285 286 287 288 288 289 290 290 290 291 292 292 293 294 295 296 298 299 300 302 303 305 306 307 308 309 309
253 254 257 260 264 267 269 272 274 276 278 279 281 282 283 285 286 287 287 288 289 289 290 290 290 291 291 292 293 293 295 296 297 299 300 302 303 305 306 307 308 309 310 310
254 255 257 260 263 266 270 273 275 277 279 281 283 284 285 286 287 288 288 289 289 290 290 290 290 291 291 292 294 295 296 297 299 301 302 304 305 306 308 309 310 310 311 311
255 255 258 261 264 267 270 274 276 278 280 283 284 285 286 286 287 288 289 290 290 290 290 291 291 292 292 294 295 297 298 300 301 303 304 305 307 308 309 309 310 311 311 312
255 257 259 261 264 268 271 273 276 278 280 283 284 286 287 287 288 289 290 290 291 291 291 291 292 293 294 296 298 299 300 302 303 304 306 307 308 309 309 310 310 311 312 312
Height
5792 5796 5799 5802 5803 5806 5808 5809 5811 5811 5811 5814 5814 5814 5815 5815 5816 5815 5815 5815 5815 5815 5814 5814 5813 5813 5812 5812 5811 5810 5809 5807 5806 5804 5802 5801 5799 5797 5795 5792 5790 5788 5787 5785
5785 5789 5792 5794 5797 5800 5801 5803 5804 5805 5805 5807 5808 5809 5809 5809 5810 5810 5810 5810 5810 5810 5809 5809 5808 5808 5807 5806 5805 5804 5803 5801 5800 5798 5796 5794 5792 5790 5788 5785 5783 5781 5779 5777
5777 5783 5785 5787 5790 5793 5795 5797 5798 5799 5799 5800 5801 5803 5803 5804 5804 5804 5804 5804 5804 5804 5804 5804 5803 5803 5802 5801 5799 5798 5797 5795 5793 5791 5789 5787 5785 5783 5781 5779 5776 5774 5772 5770
5770 5775 5777 5781 5784 5786 5789 5790 5792 5793 5793 5794 5795 5796 5798 5799 5798 5798 5798 5799 5799 5799 5799 5798 5798 5797 5796 5795 5793 5792 5790 5788 5786 5784 5782 5780 5778 5776 5774 5771 5769 5767 5765 5762
5763 5768 5770 5774 5777 5779 5782 5784 5786 5786 5786 5788 5789 5788 5792 5793 5793 5793 5793 5793 5793 5793 5793 5793 5792 5791 5790 5789 5787 5785 5784 5782 5779 5777 5775 5773 5770 5768 5766 5764 5761 5759 5757 5754
5757 5760 5764 5768 5771 5773 5775 5778 5779 5780 5780 5782 5785 5782 5784 5786 5788 5787 5787 5787 5788 5788 5788 5787 5786 5785 5784 5782 5781 5779 5777 5775 5772 5770 5768 5765 5763 5760 5758 5756 5753 5751 5748 5746
5750 5753 5757 5760 5764 5767 5769 5772 5774 5774 5775 5776 5778 5777 5778 5780 5781 5781 5781 5781 5782 5782 5782 5781 5780 5779 5778 5776 5774 5772 5770 5768 5765 5763 5760 5758 5755 5752 5750 5747 5745 5742 5739 5736
5742 5746 5750 5754 5758 5760 5762 5765 5768 5769 5769 5769 5770 5772 5774 5774 5773 5774 5775 5776 5776 5775 5775 5775 5774 5772 5771 5769 5767 5765 5763 5760 5758 5755 5752 5750 5747 5744 5741 5738 5735 5732 5729 5726
5736 5740 5744 5747 5750 5753 5756 5759 5762 5762 5763 5764 5765 5766 5768 5769 5768 5767 5768 5769 5769 5769 5768 5768 5767 5765 5764 5762 5760 5757 5755 5752 5750 5747 5744 5741 5738 5735 5732 5729 5725 5722 5719 5715
5729 5732 5736 5739 5743 5746 5750 5753 5754 5755 5756 5757 5760 5761 5762 5764 5763 5762 5761 5762 5762 5762 5761 5760 5759 5758 5756 5754 5751 5749 5746 5744 5741 5738 5735 5731 5728 5725 5722 5718 5715 5711 5708 5704
5723 5726 5729 5734 5737 5741 5744 5746 5748 5749 5751 5752 5753 5756 5755 5757 5757 5756 5755 5755 5755 5754 5754 5753 5751 5749 5747 5745 5742 5740 5737 5734 5731 5728 5725 5721 5718 5715 5711 5708 5704 5700 5696 5691
5716 5719 5722 5727 5731 5733 5736 5739 5741 5743 5745 5745 5747 5751 5750 5750 5749 5749 5748 5748 5747 5747 5745 5744 5742 5740 5738 5736 5733 5730 5727 5724 5721 5717 5714 5711 5708 5704 5700 5696 5692 5688 5683 5678
5710 5714 5717 5720 5725 5727 5729 5732 5734 5737 5738 5738 5740 5744 5743 5742 5742 5741 5741 5741 5740 5739 5737 5735 5733 5731 5729 5726 5723 5720 5717 5714 5710 5707 5703 5700 5696 5693 5689 5684 5680 5675 5670 5665
5705 5708 5713 5716 5716 5720 5723 5726 5728 5729 5730 5732 5734 5736 5735 5734 5733 5734 5733 5733 5732 5730 5728 5726 5724 5721 5718 5715 5712 5709 5706 5703 5699 5696 5692 5688 5684 5680 5676 5671 5666 5661 5656 5650
5699 5703 5706 5708 5710 5713 5716 5719 5720 5722 5724 5725 5728 5728 5728 5725 5724 5725 5724 5723 5722 5721 5719 5716 5713 5711 5708 5705 5701 5698 5695 5691 5688 5684 5680 5676 5672 5668 5663 5658 5653 5647 5641 5635
5692 5696 5699 5701 5704 5706 5708 5711 5713 5715 5717 5718 5719 5720 5720 5717 5716 5715 5715 5713 5712 5710 5708 5705 5702 5699 5696 5693 5690 5686 5683 5679 5676 5672 5668 5664 5659 5654 5649 5644 5638 5632 5626 5619
5686 5689 5692 5695 5697 5698 5701 5706 5707 5708 5709 5710 5710 5712 5710 5709 5708 5706 5704 5703 5701 5699 5697 5694 5691 5688 5685 5682 5678 5675 5671 5668 5664 5660 5655 5651 5646 5641 5635 5629 5623 5617 5610 5603
5680 5682 5684 5687 5690 5690 5698 5698 5699 5700 5701 5701 5701 5701 5700 5700 5699 5697 5695 5693 5690 5688 5685 5682 5679 5676 5673 5670 5667 5663 5659 5655 5652 5647 5643 5638 5633 5627 5621 5615 5608 5601 5594 5586
5672 5675 5677 5679 5680 5682 5688 5690 5691 5691 5692 5694 5692 5691 5690 5690 5688 5687 5684 5682 5679 5677 5674 5671 5668 5665 5662 5658 5655 5651 5647 5643 5639 5634 5629 5624 5618 5613 5606 5600 5592 5585 5577 5568
5665 5667 5670 5671 5672 5674 5680 5681 5682 5682 5683 5685 5683 5681 5680 5679 5678 5677 5673 5670 5668 5665 5662 5659 5656 5653 5650 5646 5643 5639 5635 5631 5626 5621 5616 5610 5604 5598 5591 5583 5576 5567 5558 5550
5658 5659 5661 5663 5663 5665 5670 5671 5672 5674 5675 5674 5672 5671 5670 5669 5667 5665 5662 5659 5656 5653 5651 5648 5645 5641 5638 5634 5631 5627 5622 5618 5613 5608 5602 5596 5589 5582 5574 5567 5558 5549 5541 5532
5650 5652 5654 5655 5655 5660 5662 5662 5663 5663 5663 5662 5661 5660 5659 5658 5655 5653 5650 5647 5645 5642 5639 5636 5633 5629 5626 5622 5618 5614 5609 5604 5599 5594 5587 5581 5574 5566 5558 5549 5541 5531 5521 5512
5641 5645 5646 5648 5651 5651 5652 5652 5652 5652 5652 5651 5650 5649 5648 5646 5644 5641 5639 5636 5633 5630 5627 5624 5621 5617 5613 5609 5605 5600 5595 5590 5585 5579 5572 5565 5558 5549 5541 5532 5522 5513 5502 5491
5633 5635 5637 5639 5640 5642 5642 5642 5642 5641 5641 5640 5639 5638 5636 5635 5632 5630 5628 5625 5622 5619 5616 5612 5609 5605 5601 5596 5591 5586 5581 5575 5569 5563 5556 5549 5541 5533 5524 5514 5504 5493 5482 5471
5624 5626 5628 5630 5631 5632 5633 5632 5632 5631 5630 5629 5628 5627 5625 5623 5621 5619 5616 5613 5610 5607 5604 5600 5596 5592 5588 5583 5578 5572 5566 5560 5554 5547 5540 5532 5524 5515 5506 5497 5486 5474 5463 5449
5615 5618 5620 5621 5623 5623 5623 5623 5622 5621 5620 5619 5617 5615 5614 5612 5609 5607 5604 5601 5598 5595 5591 5587 5583 5579 5574 5569 5564 5557 5551 5545 5538 5531 5523 5515 5506 5497 5487 5477 5469 5457 5444 5432